Update:The SL-4 rocket body re-entered the Earths atmosphere on the 20th May, 2012 @ 15:38 GMT ± 1 minute.
Inclination: 81.37°Revolution Number: 51Predicted Location: 27°N, 359°E
A SL-4 rocket body that was launched on the 17th May, 2012, from the Baikonur Cosmodrome, for the KOSMOS 2480 satellite mission is predicted to re-enter the Earths atmosphere on the 20th May, 2012 @ 16:40 GMT ± 15 hours.
SL-4 RB 1 38336U 12024B 12140.48792903 .03945207 -10165-5 68752-3 0 94 2 38336 081.3757 109.1053 0029740 068.8927 291.5916 16.31394573 316
Period: 88.65 minutesInclination: 81.37°Apogee: 235 kmPerigee: 181 km Revolution Number: 50Predicted Location: 77°S, 201°E